Location: Asheville, NC
(35.6000°N, 82.5500°W)
Time: 10:49:34

FO-29 - Pass Details

Date: 10 March 2018
Orbit: 800 x 1321 km, 98.5° (Epoch: 20 March)

Event Time Altitude Azimuth Distance (km) Brightness Sun altitude
Rises 22:03:00 0° 353° (N) 3,967 13.1 -41.7°
Reaches altitude 10° 22:06:30 10° 335° (NNW) 3,094 12.6 -42.3°
Maximum altitude 22:10:47 17° 298° (WNW) 2,671 12.3 -43.1°
Drops below altitude 10° 22:15:17 10° 261° (W) 3,263 12.6 -43.8°
Sets 22:19:08 0° 243° (WSW) 4,278 13.1 -44.5°
